Location: Niverville
(49.6028°N, 97.0419°W)
Time: 02:55:49
(UTC-05:00)

ISS - All Passes

Search period start: 24 May 2016 00:00
Search period end: 03 June 2016 00:00
Orbit: 402 x 404 km, 51.6° (Epoch: 23 May)

Date Brightness Start Highest point End Pass type
(mag) Time Alt. Az. Time Alt. Az. Time Alt. Az.
24 May - 00:42:18 10° SW 00:45:25 45° SSE 00:48:34 10° ENE visible
24 May - 02:18:35 10° W 02:21:50 65° N 02:25:06 10° ENE visible
24 May - 03:55:13 10° WNW 03:58:29 67° NNE 04:01:45 10° E visible
24 May - 05:31:46 10° W 05:34:51 40° SSW 05:37:57 10° SE daylight
24 May - 23:49:56 10° SSW 23:52:48 29° SE 23:55:41 10° E visible
25 May - 01:25:46 10° WSW 01:29:03 80° NNW 01:32:20 10° ENE visible
25 May - 03:02:26 10° WNW 03:05:41 59° N 03:08:55 10° E visible
25 May - 04:38:57 10° WNW 04:42:11 63° SSW 04:45:25 10° ESE visible
25 May - 06:16:19 10° WSW 06:18:07 14° SW 06:19:56 10° S daylight
25 May - 22:57:54 10° S 23:00:14 18° SE 23:02:34 10° E visible
26 May - 00:33:02 10° WSW 00:36:17 77° SSE 00:39:33 10° ENE visible
26 May - 02:09:37 10° W 02:12:51 57° N 02:16:04 10° E visible
26 May - 03:46:09 10° WNW 03:49:27 89° S 03:52:43 10° ESE visible
26 May - 05:22:57 10° W 05:25:35 23° SW 05:28:13 10° SSE daylight
26 May - 22:06:44 10° SSE 22:07:44 11° SE 22:08:42 10° ESE visible
26 May - 23:40:23 10° SW 23:43:34 51° SSE 23:46:46 10° ENE visible
27 May - 01:16:46 10° W 01:20:01 62° N 01:23:16 10° ENE visible
27 May - 02:53:23 10° WNW 02:56:40 71° NNE 02:59:55 10° E visible
27 May - 04:29:58 10° W 04:32:59 35° SSW 04:36:00 10° SE visible
27 May - 22:47:55 10° SSW 22:50:54 33° SSE 22:53:53 10° E visible
28 May - 00:23:55 10° W 00:27:12 74° NNW 00:30:28 10° ENE visible
28 May - 02:00:35 10° WNW 02:03:50 61° N 02:07:05 10° E visible
28 May - 03:37:05 10° WNW 03:40:18 55° SSW 03:43:30 10° SE visible
28 May - 05:14:49 10° WSW 05:16:11 12° SW 05:17:32 10° SSW daylight
28 May - 21:55:45 10° SSW 21:58:17 21° SE 22:00:49 10° E daylight
28 May - 23:31:07 10° WSW 23:34:24 84° SSE 23:37:41 10° ENE visible
29 May - 01:07:45 10° W 01:10:59 57° N 01:14:13 10° E visible
29 May - 02:44:17 10° WNW 02:47:34 81° SSW 02:50:50 10° ESE visible
29 May - 04:21:11 10° W 04:23:39 20° SW 04:26:05 10° S visible
29 May - 21:04:09 10° SSE 21:05:44 13° SE 21:07:18 10° ESE daylight
29 May - 22:38:25 10° SW 22:41:38 58° SSE 22:44:52 10° ENE visible
30 May - 00:14:53 10° W 00:18:07 60° N 00:21:22 10° ENE visible
30 May - 01:51:28 10° WNW 01:54:46 76° NNE 01:58:02 10° E visible
30 May - 03:28:05 10° W 03:31:02 31° SSW 03:33:58 10° SSE visible
30 May - 21:45:52 10° SW 21:48:55 37° SSE 21:51:59 10° E daylight
30 May - 23:22:00 10° W 23:25:16 70° NNW 23:28:32 10° ENE visible
31 May - 00:58:39 10° WNW 01:01:55 63° N 01:05:10 10° E visible
31 May - 02:35:10 10° WNW 02:38:21 49° SSW 02:41:31 10° SE visible
31 May - 04:13:38 10° SW 04:14:09 10° SW 04:14:40 10° SW visible
31 May - 20:53:34 10° SSW 20:56:16 24° SE 20:58:59 10° E daylight
31 May - 22:29:10 10° WSW 22:32:26 89° NNW 22:35:44 10° ENE visible
01 Jun - 00:05:48 10° WNW 00:09:03 58° N 00:12:17 10° E visible
01 Jun - 01:42:19 10° WNW 01:45:36 73° SSW 01:48:50 10° ESE visible
01 Jun - 03:19:23 10° W 03:21:37 17° SW 03:23:51 10° S visible
01 Jun - 20:01:43 10° S 20:03:40 15° SE 20:05:38 10° ESE daylight
01 Jun - 21:36:24 10° WSW 21:39:39 66° SSE 21:42:54 10° ENE daylight
01 Jun - 23:12:56 10° W 23:16:10 58° N 23:19:24 10° ENE visible
02 Jun - 00:49:30 10° WNW 00:52:47 82° NNE 00:56:03 10° ESE visible
02 Jun - 02:26:10 10° W 02:29:00 27° SW 02:31:49 10° SSE visible
02 Jun - 20:43:46 10° SW 20:46:54 43° SSE 20:50:01 10° ENE daylight
02 Jun - 22:20:01 10° W 22:23:17 66° N 22:26:33 10° ENE visible
